Regional Weather Roundup
Issued by NWS

Home | Current Version | Previous Version | Text Only | Print | Product List | Glossary On
Versions: 1 2 3 4 5 6 7 8 9 10 11 12 13 14 15 16 17 18 19 20 21 22 23 24 25 26 27 28 29 30 31 32 33 34 35 36 37 38 39 40 41 42 43 44 45 46 47 48 49 50
094
ASUS44 KFWD 272310
RWRTX
NORTH TEXAS HOURLY WEATHER ROUNDUP
NATIONAL WEATHER SERVICE FORT WORTH TX
600 PM CDT SAT AUG 27 2016

NOTE: "FAIR" INDICATES FEW OR NO CLOUDS BELOW 12,000 FEET WITH NO
SIGNIFICANT WEATHER AND/OR OBSTRUCTIONS TO VISIBILITY.

TXZ118-119-280000-
DALLAS/FORT WORTH METROPLEX

CITY           SKY/WX    TMP DP  RH WIND       PRES   REMARKS
DFW AIRPORT    MOSUNNY   90  68  48 SE9       29.93S HX  94
DALLAS LOVE    MOSUNNY   91  67  44 E6        29.93S HX  94
FTW MEACHAM    SUNNY     92  67  43 E9        29.93S HX  95
DAL-EXECUTIVE  SUNNY     90  69  50 E8        29.94S HX  94
FTW-ALLIANCE   PTSUNNY   90  67  46 E8        29.93F HX  93
FTW-SPINKS     MOSUNNY   91  70  49 E6        29.95S HX  97
ARLINGTON      SUNNY     90  69  50 SE10      29.93F HX  94
GRAND PRAIRIE  SUNNY     90  66  45 E10       29.94S HX  92
MESQUITE       SUNNY     88  70  55 E8        29.94S HX  92
LANCASTER      MOSUNNY   91  70  50 E7        29.95S HX  96
$$

TXZ091>094-102>105-117-120-121-131>134-280000-
NORTH CENTRAL TEXAS

CITY           SKY/WX    TMP DP  RH WIND       PRES   REMARKS
SHRMAN/DENISON SUNNY     90  72  55 E8        29.96F HX  97
GAINESVILLE      N/A     88  68  51 SE8       29.96F HX  91
BOWIE          MOSUNNY   86  71  60 SE3       29.96R HX  91
BRIDGEPORT     CLOUDY    86  73  64 SE3       29.96S HX  93
DECATUR        MOSUNNY   85  67  55 E5        29.96S
DENTON         SUNNY     90  68  48 SE8       29.93F HX  94
MCKINNEY       SUNNY     89  70  53 SE6       29.94S HX  94
GREENVILLE     DRIZZLE   84  72  65 SW5       29.96R
ROCKWALL       HAZE      89  71  55 SE8       29.94S VSB 1/4 HX  94
TERRELL        PTSUNNY   86  68  54 E9        29.95S
WAXAHACHIE     SUNNY     89  71  54 E5        29.95S HX  94
CLEBURNE       MOSUNNY   90  72  55 NE7       29.96S HX  96
GRANBURY       MOSUNNY   91  69  48 CALM      29.95S HX  95
$$

TXZ083>090-098>101-113>116-127>130-139>142-154-155-280000-
WESTERN NORTH TEXAS

CITY           SKY/WX    TMP DP  RH WIND       PRES   REMARKS
WICHITA FALLS  TSTM      76  71  85 S13G22    29.95S
WF-KICKAPOO    TSTM      81  69  68 SW3       29.99R
VERNON         CLOUDY    85  60  42 S10       29.96R
ABILENE        PTSUNNY   74  70  87 SE7       30.00S
ABILENE-DYESS  CLOUDY    84  67  57 SE8       29.97F
CISCO          CLOUDY    79  70  73 E3        30.00S
BRECKENRIDGE   CLOUDY    87  68  52 SE6       29.98R HX  90
GRAHAM         CLOUDY    81  70  71 CALM      29.98R
MINERAL WELLS  CLOUDY    81  70  69 SW5       29.95R
STEPHENVILLE   CLOUDY    80  73  79 CALM      29.99S
COMANCHE       CLOUDY    85  68  56 E6        29.97S
BROWNWOOD      SUNNY     86  70  58 E12       29.96S HX  90
COLEMAN        PTSUNNY   83  65  55 NE8       29.99S
$$

TXZ143>147-156>162-174-175-280000-
CENTRAL TEXAS

CITY           SKY/WX    TMP DP  RH WIND       PRES   REMARKS
WACO           MOSUNNY   90  71  53 E3        29.93R HX  96
WACO-MCGREGOR  SUNNY     90  70  51 MISG      29.93S HX  95
HILLSBORO      SUNNY     88  71  56 SE8       29.94S HX  93
CORSICANA      SUNNY     89  67  47 E5        29.95S HX  92
MEXIA          CLOUDY    87  72  61 E5        29.93S HX  92
HEARNE         MOSUNNY   88  71  57 MISG      29.92S HX  93
CAMERON        SUNNY     89  70  53 E5        29.92S HX  95
TEMPLE         SUNNY     90  70  51 E10       29.93S HX  95
KILLEEN        MOSUNNY   88  69  53 E7        29.93R HX  92
KILLEEN-SKYLRK MOSUNNY   87  71  58 E7        29.94R HX  93
FORT HOOD      SUNNY     89  69  52 E9        29.91S HX  93
GATESVILLE     SUNNY     90  70  51 SE5       29.96S HX  95
HAMILTON       SUNNY     87  70  56 E5        29.97S HX  92
LAMPASAS       SUNNY     91  73  56 E6        29.95R HX  99
$$

TXZ095>097-106>112-122>126-135>138-148>153-164>167-280000-
EAST TEXAS

CITY           SKY/WX    TMP DP  RH WIND       PRES   REMARKS
PARIS          CLOUDY    88  70  55 E5        29.97S HX  92
SULPHUR SPRNGS CLOUDY    88  72  59 E5        29.98S HX  94
MOUNT PLEASANT MOSUNNY   80  72  76 W6        29.96S
GILMER         MOSUNNY   87  71  58 CALM      29.95R HX  93
TYLER          MOSUNNY   87  74  64 CALM      29.94S HX  95
LONGVIEW       MOSUNNY   89  71  55 SE8       29.93S HX  95
MARSHALL       MOSUNNY   85  68  56 E3        29.96R
ATHENS         CLOUDY    82  72  69 CALM      29.94S
PALESTINE      LGT RAIN  83  74  74 E7        29.95S HX  90
JACKSONVILLE   MOSUNNY   87  71  59 E5        29.97S HX  92
HENDERSON      PTSUNNY   83  71  68 S5G17     29.95R
CENTER         LGT RAIN  79  75  87 S3        29.97S
NACOGDOCHES    CLOUDY   N/A N/A N/A SE3       29.94R
LUFKIN         CLOUDY    77  73  87 E6        29.94F
$$

SUPPLEMENTAL OBSERVATIONS (CENTRAL)

CITY           SKY/WX    TMP DP  RH WIND       PRES   REMARKS
CADDO GRASSLND   N/A     84  72  65 SE1         N/A
PAT MAYSE LAKE   N/A     88  73  62 E5          N/A  HX  96
GREENVILLE       N/A     88  72  58 E6          N/A  HX  94
CEDAR HILL       N/A     91  70  49 E2          N/A  HX  97
MCGREGOR         N/A     90  70  51 E8          N/A  HX  95
$$

SUPPLEMENTAL OBSERVATIONS (WEST)

CITY           SKY/WX    TMP DP  RH WIND       PRES   REMARKS
MILLERS CREEK    N/A     72  68  88 SE3G20      N/A
LBJ GRASSLAND    N/A     86  70  58 E3          N/A  HX  90
HAMBY            N/A     81  66  61 E9          N/A
IVIE RESERVOIR   N/A     84  66  54 NE21G26     N/A
COLORADO BEND    N/A     82  73  74 W1G9        N/A
$$

SUPPLEMENTAL OBSERVATIONS (EAST)

CITY           SKY/WX    TMP DP  RH WIND       PRES   REMARKS
CLARKSVILLE      N/A     81  73  78 W1          N/A
GILMER           N/A     91  72  52 E2          N/A  HX  98
HENDERSON        N/A     82  72  69 S6          N/A
LUFKIN           N/A     79  73  83 MISG        N/A
N SABINE NF      N/A     75  72  88 MISG        N/A
S SABINE NF      N/A     79  77  94 N3          N/A
$$

SUPPLEMENTAL OBSERVATIONS ARE A COLLECTION OF AUTOMATED INSTRUMENTS
THAT ARE MAINTAINED BY A VARIETY OF FEDERAL AND STATE AGENCIES.
CERTAIN ELEMENTS...SUCH AS HUMIDITY VALUES AND SUSTAINED WIND
SPEEDS...MAY BE APPROXIMATED.





USA.gov is the U.S. government's official web portal to all federal, state and local government web resources and services.